Alicante, Spain

4:14 PM CEST on July 23, 2016 (GMT +0200)
Alicante

Weather History for LEAL - October, 2012

Change the Weather History Date:

Saturday, October 27, 2012

  Actual Average Record
Temperature  
Mean Temperature 68 °F -  
Max Temperature 76 °F 66 °F 86 °F (2002)
Min Temperature 59 °F 50 °F 42 °F (2010)
Cooling Degree Days 2    
Growing Degree Days 18 (Base 50)    
Moisture  
Dew Point 54 °F    
Average Humidity 63    
Maximum Humidity 94    
Minimum Humidity 28    
Precipitation  
Precipitation 0.00 in - - ()
Sea Level Pressure  
Sea Level Pressure 29.57 in    
Wind  
Wind Speed 9 mph ()    
Max Wind Speed 21 mph    
Max Gust Speed 29 mph    
Visibility 6.3 miles    
Events Rain    
Averages and records for this station are not official NWS values.
T = Trace of Precipitation, MM = Missing Value Source: Averaged Metar Reports

Daily Weather History Graph

Daily Weather History Graph

Search for Another Location

Airport or City:

Trip Planner

Search our weather history database for the weather conditions in past years. The results will help you decide how hot, cold, wet, or windy it might be!

Date:

Astronomy

Oct. 27, 2012 Rise Set
Actual Time 8:23 AM CEST 7:08 PM CEST
Civil Twilight 7:56 AM CEST 7:35 PM CEST
Nautical Twilight 7:25 AM CEST 8:06 PM CEST
Astronomical Twilight 6:54 AM CEST 8:36 PM CEST
Moon 5:45 PM CEST (10/27) 6:05 AM CEST (10/27)
Length of Visible Light 11h 39m
Length of Day
10h 44m
Waxing Gibbous, 95% of the Moon is Illuminated
Oct 27
Waxing Gibbous
Oct 29
Full
Nov 7
Last Quarter
Nov 13
New
Nov 20
First Quarter

Hourly Weather History & Observations

Time (CEST) Temp. Dew Point Humidity Pressure Visibility Wind Dir Wind Speed Gust Speed Precip Events Conditions
12:00 AM 62.6 °F 57.2 °F 82% 29.56 in 6.2 mi WSW 9.2 mph - N/A   Partly Cloudy
12:30 AM 62.6 °F 57.2 °F 82% 29.56 in 6.2 mi WSW 9.2 mph - N/A   Partly Cloudy
1:00 AM 62.6 °F 55.4 °F 77% 29.56 in 6.2 mi WSW 6.9 mph - N/A   Partly Cloudy
1:30 AM 62.6 °F 55.4 °F 77% 29.56 in 6.2 mi SW 8.1 mph - N/A   Partly Cloudy
2:00 AM 62 °F 53 °F 65% 29.57 in 9 mi SW 10.4 mph - -   Scattered Clouds
2:00 AM 62.6 °F 55.4 °F 77% 29.56 in 6.2 mi SW 9.2 mph - N/A   Partly Cloudy
2:30 AM 60.8 °F 55.4 °F 82% 29.56 in 6.2 mi WSW 10.4 mph - N/A   Partly Cloudy
3:00 AM 60.8 °F 55.4 °F 82% 29.56 in 6.2 mi SW 9.2 mph - N/A   Partly Cloudy
3:30 AM 60.8 °F 55.4 °F 82% 29.56 in 6.2 mi WSW 10.4 mph - N/A   Partly Cloudy
4:00 AM 60.8 °F 55.4 °F 82% 29.53 in 6.2 mi Variable 2.3 mph - N/A   Partly Cloudy
5:30 AM 62.6 °F 53.6 °F 72% 29.53 in 6.2 mi West 6.9 mph - N/A   Partly Cloudy
6:30 AM 64.4 °F 55.4 °F 73% 29.50 in 6.2 mi West 11.5 mph - N/A Rain Light Rain
7:00 AM 59.0 °F 57.2 °F 94% 29.53 in 6.2 mi SSW 5.8 mph - N/A Rain Light Rain
7:30 AM 60.8 °F 57.2 °F 88% 29.53 in 6.2 mi WSW 9.2 mph - N/A Rain Light Rain
8:00 AM 60.8 °F 57.2 °F 88% 29.53 in 6.2 mi WSW 8.1 mph - N/A   Mostly Cloudy
8:30 AM 60.8 °F 57.2 °F 88% 29.53 in 6.2 mi WSW 5.8 mph - N/A   Scattered Clouds
9:00 AM 60.8 °F 57.2 °F 88% 29.53 in 6.2 mi SW 4.6 mph - N/A   Scattered Clouds
9:30 AM 60.8 °F 57.2 °F 88% 29.56 in 6.2 mi SW 3.5 mph - N/A   Scattered Clouds
10:00 AM 62.6 °F 57.2 °F 82% 29.56 in 6.2 mi SSW 3.5 mph - N/A   Partly Cloudy
10:30 AM 62.6 °F 57.2 °F 82% 29.56 in 6.2 mi Variable 1.2 mph - N/A   Partly Cloudy
11:00 AM 66.2 °F 57.2 °F 73% 29.56 in 6.2 mi West 8.1 mph - N/A   Partly Cloudy
11:30 AM 69.8 °F 57.2 °F 64% 29.56 in 6.2 mi West 16.1 mph - N/A   Partly Cloudy
12:00 PM 69.8 °F 57.2 °F 64% 29.56 in 6.2 mi West 12.7 mph - N/A   Partly Cloudy
12:30 PM 71.6 °F 55.4 °F 57% 29.56 in 6.2 mi West 13.8 mph - N/A   Partly Cloudy
1:00 PM 73.4 °F 55.4 °F 53% 29.56 in 6.2 mi West 15.0 mph - N/A   Partly Cloudy
2:00 PM 75 °F 49 °F 28% 29.56 in 25 mi WNW 18.4 mph - -   Scattered Clouds
2:00 PM 75.2 °F 51.8 °F 44% 29.56 in 6.2 mi WNW 18.4 mph - N/A   Partly Cloudy
2:30 PM 77.0 °F 53.6 °F 44% 29.53 in 6.2 mi WNW 17.3 mph 28.8 mph N/A   Partly Cloudy
3:00 PM 75.2 °F 51.8 °F 44% 29.53 in 6.2 mi West 18.4 mph - N/A   Partly Cloudy
3:30 PM 75.2 °F 51.8 °F 44% 29.53 in 6.2 mi West 19.6 mph - N/A   Partly Cloudy
4:00 PM 75.2 °F 50.0 °F 41% 29.53 in 6.2 mi WNW 18.4 mph - N/A   Partly Cloudy
4:30 PM 75.2 °F 51.8 °F 44% 29.53 in 6.2 mi West 20.7 mph - N/A   Partly Cloudy
5:00 PM 75.2 °F 50.0 °F 41% 29.53 in 6.2 mi WNW 18.4 mph - N/A   Partly Cloudy
5:30 PM 75.2 °F 50.0 °F 41% 29.53 in 6.2 mi WNW 17.3 mph - N/A   Partly Cloudy
6:00 PM 75.2 °F 51.8 °F 44% 29.56 in 6.2 mi WNW 13.8 mph - N/A   Partly Cloudy
6:30 PM 73.4 °F 51.8 °F 47% 29.56 in 6.2 mi West 11.5 mph - N/A   Partly Cloudy
7:00 PM 71.6 °F 50.0 °F 46% 29.59 in 6.2 mi West 9.2 mph - N/A   Partly Cloudy
7:30 PM 71.6 °F 51.8 °F 50% 29.59 in 6.2 mi West 8.1 mph - N/A   Partly Cloudy
8:00 PM 70 °F 49 °F 37% 29.62 in 25 mi West 8.1 mph - -   Scattered Clouds
8:00 PM 69.8 °F 51.8 °F 53% 29.62 in 6.2 mi West 8.1 mph - N/A   Partly Cloudy
8:30 PM 69.8 °F 51.8 °F 53% 29.62 in 6.2 mi West 10.4 mph - N/A   Partly Cloudy
9:00 PM 69.8 °F 51.8 °F 53% 29.62 in 6.2 mi WNW 10.4 mph - N/A   Partly Cloudy
9:30 PM 68.0 °F 50.0 °F 52% 29.65 in 6.2 mi West 4.6 mph - N/A   Partly Cloudy
10:00 PM 66.2 °F 50.0 °F 56% 29.65 in 6.2 mi West 8.1 mph - N/A   Partly Cloudy
10:30 PM 66.2 °F 48.2 °F 52% 29.68 in 6.2 mi WNW 12.7 mph - N/A   Partly Cloudy
11:00 PM 66.2 °F 48.2 °F 52% 29.68 in 6.2 mi WNW 13.8 mph - N/A   Partly Cloudy
11:30 PM 64.4 °F 48.2 °F 56% 29.71 in 6.2 mi WNW 12.7 mph - N/A   Partly Cloudy